CCA3296 ZJSY-ZSPD

Flight info

Callsign CCA3296
Flight time N/A
Altitude 35100
Route PORAP W222 NUMKU W223 AGTEL W71 LH DCT GYA A599 POU G471 EGEDA/K0861S1100 G471 PLT/K0859S1070 A599 ELNEX G204 SHZ W58 BK
Aircraft A320/M-SDE3FGHIRWY/LB1

Departure

Time 2026-05-06 10:53
Airport Sanya Phoenix International Airport (ZJSY)

Arrival

Time N/A
Airport Shanghai Pudong International Airport (ZSPD)
Time Latitude Longitude Altitude Speed Heading
2026-05-06 10:09 18.30754 109.40418 84 ft 0 kts 352°
2026-05-06 10:41 18.30750 109.40419 84 ft 2 kts 352°
2026-05-06 10:41 18.30733 109.40421 86 ft 2 kts 355°
2026-05-06 10:41 18.30717 109.40422 87 ft 2 kts 12°
2026-05-06 10:41 18.30702 109.40423 89 ft 2 kts 22°
2026-05-06 10:42 18.30693 109.40416 89 ft 2 kts 16°
2026-05-06 10:42 18.30686 109.40415 88 ft 2 kts 250°
2026-05-06 10:42 18.30690 109.40420 89 ft 0 kts 106°
2026-05-06 10:45 18.30687 109.40432 85 ft 10 kts 108°
2026-05-06 10:46 18.30690 109.40494 88 ft 9 kts 83°
2026-05-06 10:46 18.30697 109.40550 84 ft 7 kts 83°
2026-05-06 10:46 18.30702 109.40595 85 ft 5 kts 83°
2026-05-06 10:46 18.30704 109.40627 87 ft 4 kts 102°
2026-05-06 10:47 18.30638 109.40655 85 ft 19 kts 174°
2026-05-06 10:47 18.30504 109.40675 87 ft 20 kts 169°
2026-05-06 10:47 18.30401 109.40713 86 ft 13 kts 112°
2026-05-06 10:47 18.30409 109.40801 83 ft 12 kts 82°
2026-05-06 10:48 18.30419 109.40880 86 ft 10 kts 82°
2026-05-06 10:48 18.30427 109.40945 83 ft 8 kts 82°
2026-05-06 10:48 18.30434 109.40997 86 ft 6 kts 82°
2026-05-06 10:48 18.30439 109.41038 83 ft 5 kts 82°
2026-05-06 10:49 18.30443 109.41070 83 ft 4 kts 82°
2026-05-06 10:49 18.30446 109.41092 88 ft 2 kts 82°
2026-05-06 10:49 18.30448 109.41107 86 ft 3 kts 82°
2026-05-06 10:49 18.30452 109.41141 83 ft 6 kts 82°
2026-05-06 10:50 18.30460 109.41201 88 ft 10 kts 82°
2026-05-06 10:50 18.30482 109.41339 85 ft 26 kts 82°
2026-05-06 10:50 18.30505 109.41532 86 ft 27 kts 78°
2026-05-06 10:50 18.30528 109.41729 84 ft 27 kts 83°
2026-05-06 10:51 18.30555 109.41930 84 ft 28 kts 82°
2026-05-06 10:51 18.30582 109.42136 83 ft 29 kts 83°
2026-05-06 10:51 18.30609 109.42345 84 ft 29 kts 83°
2026-05-06 10:51 18.30634 109.42536 87 ft 21 kts 82°
2026-05-06 10:52 18.30653 109.42686 83 ft 19 kts 86°
2026-05-06 10:52 18.30585 109.42797 85 ft 20 kts 162°
2026-05-06 10:52 18.30496 109.42776 84 ft 8 kts 265°
2026-05-06 10:52 18.30483 109.42691 83 ft 27 kts 262°
2026-05-06 10:53 18.30420 109.42223 83 ft 98 kts 262°
2026-05-06 10:53 18.30302 109.41316 85 ft 150 kts 262°
2026-05-06 10:53 18.30144 109.40093 205 ft 181 kts 261°
2026-05-06 10:53 18.29843 109.38827 832 ft 177 kts 241°
2026-05-06 10:54 18.29330 109.37656 1412 ft 176 kts 242°
2026-05-06 10:54 18.28829 109.36483 2000 ft 177 kts 244°
2026-05-06 10:54 18.28328 109.35301 2659 ft 176 kts 244°
2026-05-06 10:54 18.27809 109.34133 3222 ft 176 kts 235°
2026-05-06 10:55 18.26901 109.33312 3712 ft 173 kts 199°
2026-05-06 10:55 18.25713 109.33151 4161 ft 178 kts 169°
2026-05-06 10:55 18.24556 109.33735 4370 ft 197 kts 134°
2026-05-06 10:55 18.23900 109.35028 4573 ft 215 kts 97°
2026-05-06 10:56 18.24198 109.36574 4969 ft 223 kts 57°
2026-05-06 10:56 18.25215 109.37833 5467 ft 228 kts 47°
2026-05-06 10:56 18.26299 109.39048 6182 ft 228 kts 46°
2026-05-06 10:56 18.27395 109.40268 6805 ft 230 kts 45°
2026-05-06 10:57 18.28503 109.41506 7397 ft 234 kts 45°
2026-05-06 10:57 18.29622 109.42762 7987 ft 238 kts 45°
2026-05-06 10:57 18.30765 109.44042 8589 ft 241 kts 44°
2026-05-06 10:57 18.32021 109.45317 8855 ft 262 kts 40°
2026-05-06 10:58 18.33436 109.46658 9084 ft 285 kts 40°
2026-05-06 10:58 18.34963 109.48076 9507 ft 298 kts 40°
2026-05-06 10:58 18.36537 109.49538 10107 ft 305 kts 40°
2026-05-06 10:58 18.38158 109.51057 10282 ft 327 kts 41°
2026-05-06 10:59 18.39914 109.52717 10413 ft 350 kts 41°
2026-05-06 10:59 18.41712 109.54423 10709 ft 363 kts 41°
2026-05-06 10:59 18.43593 109.56217 11200 ft 370 kts 41°
2026-05-06 10:59 18.45514 109.58054 11732 ft 375 kts 41°
2026-05-06 11:00 18.47452 109.59904 12327 ft 379 kts 41°
2026-05-06 11:00 18.49564 109.61601 12894 ft 381 kts 28°
2026-05-06 11:00 18.51953 109.62815 13429 ft 384 kts 22°
2026-05-06 11:00 18.54415 109.63983 13939 ft 388 kts 22°
2026-05-06 11:01 18.56854 109.65141 14450 ft 391 kts 22°
2026-05-06 11:01 18.59339 109.66324 14940 ft 394 kts 22°
2026-05-06 11:01 18.61854 109.67525 15444 ft 397 kts 22°
2026-05-06 11:01 18.64371 109.68735 15929 ft 400 kts 22°
2026-05-06 11:02 18.66904 109.69953 16405 ft 403 kts 22°
2026-05-06 11:02 18.69457 109.71177 16882 ft 406 kts 22°
2026-05-06 11:02 18.72037 109.72414 17355 ft 408 kts 22°
2026-05-06 11:02 18.74606 109.73646 17805 ft 412 kts 22°
2026-05-06 11:03 18.77263 109.74922 18261 ft 415 kts 22°
2026-05-06 11:03 18.79899 109.76187 18659 ft 417 kts 22°
2026-05-06 11:03 18.82550 109.77459 19069 ft 419 kts 22°
2026-05-06 11:03 18.85200 109.78735 19459 ft 421 kts 22°
2026-05-06 11:04 18.87879 109.80024 19864 ft 422 kts 22°
2026-05-06 11:04 18.90521 109.81293 20215 ft 425 kts 22°
2026-05-06 11:04 18.93261 109.82608 20623 ft 427 kts 22°
2026-05-06 11:04 18.95944 109.83896 20994 ft 430 kts 22°
2026-05-06 11:05 18.98649 109.85197 21355 ft 431 kts 22°
2026-05-06 11:05 19.01387 109.86518 21713 ft 433 kts 22°
2026-05-06 11:05 19.04141 109.87848 22085 ft 435 kts 22°
2026-05-06 11:05 19.06878 109.89169 22447 ft 437 kts 22°
2026-05-06 11:06 19.09668 109.90516 22803 ft 439 kts 22°
2026-05-06 11:06 19.12454 109.91860 23159 ft 440 kts 22°
2026-05-06 11:06 19.15245 109.93209 23494 ft 442 kts 22°
2026-05-06 11:06 19.18042 109.94560 23775 ft 444 kts 22°
2026-05-06 11:07 19.20840 109.95909 24062 ft 445 kts 22°
2026-05-06 11:07 19.23688 109.97282 24344 ft 447 kts 22°
2026-05-06 11:07 19.26501 109.98636 24621 ft 448 kts 22°
2026-05-06 11:07 19.29366 109.99983 24895 ft 450 kts 21°
2026-05-06 11:08 19.32237 110.01306 25165 ft 451 kts 21°
2026-05-06 11:08 19.35124 110.02645 25429 ft 453 kts 21°
2026-05-06 11:08 19.38015 110.04013 25689 ft 455 kts 22°
2026-05-06 11:08 19.40902 110.05404 25956 ft 456 kts 22°
2026-05-06 11:09 19.42820 110.06337 26131 ft 458 kts 22°
2026-05-06 11:09 19.46662 110.08214 26486 ft 460 kts 22°
2026-05-06 11:09 19.49611 110.09653 26750 ft 461 kts 22°
2026-05-06 11:09 19.52498 110.11054 27021 ft 463 kts 22°
2026-05-06 11:10 19.55432 110.12474 27279 ft 464 kts 22°
2026-05-06 11:10 19.58413 110.13913 27534 ft 466 kts 22°
2026-05-06 11:10 19.61336 110.15323 27749 ft 468 kts 22°
2026-05-06 11:10 19.63337 110.16289 27909 ft 469 kts 22°
2026-05-06 11:11 19.66315 110.17732 28165 ft 470 kts 22°
2026-05-06 11:11 19.69295 110.19178 28401 ft 472 kts 22°
2026-05-06 11:11 19.72254 110.20612 28640 ft 473 kts 22°
2026-05-06 11:11 19.75261 110.22067 28858 ft 474 kts 22°
2026-05-06 11:12 19.79249 110.24000 29158 ft 476 kts 22°
2026-05-06 11:12 19.82267 110.25465 29376 ft 477 kts 22°
2026-05-06 11:12 19.84317 110.26459 29525 ft 478 kts 22°
2026-05-06 11:12 19.87342 110.27927 29761 ft 479 kts 22°
2026-05-06 11:13 19.90340 110.29383 30059 ft 478 kts 22°
2026-05-06 11:13 19.93369 110.30855 30337 ft 477 kts 22°
2026-05-06 11:13 19.96384 110.32323 30627 ft 475 kts 22°
2026-05-06 11:13 19.99392 110.33788 30903 ft 474 kts 22°
2026-05-06 11:14 20.02396 110.35249 31180 ft 473 kts 21°
2026-05-06 11:14 20.05471 110.36461 31439 ft 470 kts 12°
2026-05-06 11:14 20.08652 110.37113 31696 ft 465 kts
2026-05-06 11:14 20.11841 110.37203 31952 ft 461 kts 354°
2026-05-06 11:15 20.15014 110.36741 32219 ft 458 kts 346°
2026-05-06 11:15 20.18128 110.36072 32491 ft 457 kts 346°
2026-05-06 11:15 20.21254 110.35408 32771 ft 456 kts 346°
2026-05-06 11:15 20.24361 110.34753 33057 ft 456 kts 346°
2026-05-06 11:16 20.26783 110.34245 33284 ft 455 kts 346°
2026-05-06 11:16 20.29719 110.33629 33559 ft 454 kts 346°
2026-05-06 11:16 20.32818 110.32976 33843 ft 454 kts 346°
2026-05-06 11:16 20.35901 110.32323 34090 ft 453 kts 346°
2026-05-06 11:17 20.38984 110.31669 34324 ft 452 kts 346°
2026-05-06 11:17 20.42063 110.31014 34562 ft 451 kts 346°
2026-05-06 11:17 20.45148 110.30360 34799 ft 451 kts 346°
2026-05-06 11:17 20.48230 110.29724 34951 ft 452 kts 348°
2026-05-06 11:18 20.51326 110.29446 35000 ft 455 kts 357°
2026-05-06 11:18 20.57677 110.29806 35001 ft 457 kts
2026-05-06 11:19 20.64024 110.30216 35000 ft 457 kts
2026-05-06 11:19 20.70367 110.30615 34998 ft 456 kts
2026-05-06 11:20 20.76844 110.31025 35001 ft 456 kts
2026-05-06 11:20 20.83180 110.31423 35002 ft 456 kts
2026-05-06 11:21 20.89527 110.31821 35000 ft 456 kts
2026-05-06 11:21 20.95823 110.32214 35002 ft 456 kts
2026-05-06 11:22 21.02163 110.32616 35000 ft 456 kts
2026-05-06 11:22 21.08503 110.33120 35000 ft 459 kts
2026-05-06 11:23 21.13221 110.34698 35002 ft 464 kts 25°
2026-05-06 11:23 21.18276 110.38723 34982 ft 472 kts 41°
2026-05-06 11:24 21.22999 110.43647 34978 ft 473 kts 42°
2026-05-06 11:24 21.27633 110.48681 34987 ft 475 kts 43°
2026-05-06 11:25 21.32206 110.53737 35005 ft 475 kts 43°
2026-05-06 11:25 21.36818 110.58815 35003 ft 475 kts 43°
2026-05-06 11:26 21.41443 110.63891 35009 ft 475 kts 43°
2026-05-06 11:26 21.46069 110.68959 35017 ft 476 kts 43°
2026-05-06 11:27 21.50706 110.74037 35002 ft 476 kts 42°
2026-05-06 11:27 21.55348 110.79128 35008 ft 476 kts 43°
2026-05-06 11:28 21.59975 110.84218 35004 ft 476 kts 43°
2026-05-06 11:28 21.64607 110.89325 35002 ft 476 kts 43°
2026-05-06 11:29 21.69203 110.94392 35010 ft 476 kts 43°
2026-05-06 11:29 21.73831 110.99507 35016 ft 476 kts 43°
2026-05-06 11:30 21.78455 111.04615 35008 ft 477 kts 43°
2026-05-06 11:30 21.83083 111.09725 35013 ft 477 kts 43°
2026-05-06 11:31 21.87710 111.14844 35009 ft 477 kts 43°
2026-05-06 11:31 21.92304 111.19941 35012 ft 477 kts 43°
2026-05-06 11:32 21.96939 111.25070 35029 ft 477 kts 43°
2026-05-06 11:32 22.01558 111.30200 35033 ft 477 kts 43°
2026-05-06 11:33 22.06177 111.35328 35038 ft 478 kts 43°
2026-05-06 11:33 22.10815 111.40480 35044 ft 478 kts 43°
2026-05-06 11:34 22.15441 111.45637 35035 ft 478 kts 43°
2026-05-06 11:34 22.20041 111.50766 35040 ft 478 kts 43°
2026-05-06 11:35 22.24675 111.55923 35031 ft 478 kts 43°
2026-05-06 11:35 22.29301 111.61090 35040 ft 478 kts 43°
2026-05-06 11:36 22.33928 111.66259 35034 ft 479 kts 43°
2026-05-06 11:36 22.38557 111.71445 35036 ft 479 kts 43°
2026-05-06 11:37 22.43199 111.76645 35039 ft 479 kts 43°
2026-05-06 11:37 22.47797 111.81795 35043 ft 479 kts 43°
2026-05-06 11:38 22.51656 111.86125 35059 ft 479 kts 43°
2026-05-06 11:38 22.56284 111.91324 35049 ft 479 kts 43°
2026-05-06 11:39 22.60905 111.96531 35037 ft 480 kts 43°
2026-05-06 11:39 22.65522 112.01738 35036 ft 479 kts 43°
2026-05-06 11:40 22.70148 112.06947 35039 ft 480 kts 43°
2026-05-06 11:40 22.74781 112.12164 35038 ft 480 kts 43°
2026-05-06 11:41 22.79401 112.17376 35045 ft 479 kts 43°
2026-05-06 11:41 22.83987 112.22571 35042 ft 480 kts 43°
2026-05-06 11:42 22.88600 112.27800 35042 ft 479 kts 43°
2026-05-06 11:42 22.93222 112.33031 35042 ft 479 kts 43°
2026-05-06 11:43 22.97840 112.38262 35042 ft 479 kts 43°
2026-05-06 11:43 23.02364 112.43519 35037 ft 482 kts 49°
2026-05-06 11:44 23.05532 112.49953 35045 ft 489 kts 71°
2026-05-06 11:44 23.06288 112.53566 35043 ft 491 kts 82°
2026-05-06 11:44 23.06181 112.60994 35035 ft 493 kts 93°
2026-05-06 11:45 23.05670 112.68422 35032 ft 493 kts 93°
2026-05-06 11:45 23.05167 112.75852 35034 ft 494 kts 93°
2026-05-06 11:46 23.04657 112.83300 35039 ft 494 kts 94°
2026-05-06 11:46 23.04144 112.90735 35041 ft 494 kts 94°
2026-05-06 11:47 23.03635 112.98116 35042 ft 493 kts 94°
2026-05-06 11:47 23.03118 113.05553 35042 ft 493 kts 94°
2026-05-06 11:48 23.02588 113.12980 35038 ft 493 kts 94°
2026-05-06 11:48 23.02327 113.20409 35046 ft 491 kts 84°
2026-05-06 11:49 23.03116 113.27747 35048 ft 490 kts 82°
2026-05-06 11:49 23.03909 113.35103 35048 ft 490 kts 82°
2026-05-06 11:50 23.04682 113.42415 35051 ft 490 kts 82°
2026-05-06 11:50 23.05441 113.49572 35058 ft 490 kts 82°
2026-05-06 11:51 23.06218 113.56914 35052 ft 490 kts 82°
2026-05-06 11:51 23.06994 113.64267 35052 ft 490 kts 82°
2026-05-06 11:52 23.07769 113.71620 35053 ft 490 kts 82°
2026-05-06 11:52 23.08735 113.78920 35050 ft 487 kts 72°
2026-05-06 11:53 23.11429 113.85525 35052 ft 479 kts 52°
2026-05-06 11:53 23.15915 113.90791 35045 ft 469 kts 34°
2026-05-06 11:54 23.21028 113.95165 35043 ft 470 kts 34°
2026-05-06 11:54 23.26162 113.99571 35044 ft 471 kts 34°
2026-05-06 11:55 23.31310 114.03996 35048 ft 471 kts 34°
2026-05-06 11:55 23.36440 114.08378 35051 ft 471 kts 34°
2026-05-06 11:56 23.41625 114.12798 35056 ft 471 kts 34°
2026-05-06 11:56 23.46768 114.17184 35063 ft 471 kts 34°
2026-05-06 11:57 23.51927 114.21589 35066 ft 471 kts 34°
2026-05-06 11:57 23.57098 114.26019 35072 ft 471 kts 34°
2026-05-06 11:58 23.62247 114.30441 35072 ft 471 kts 34°
2026-05-06 11:58 23.67376 114.34808 35081 ft 471 kts 33°
2026-05-06 11:59 23.72617 114.39094 35076 ft 470 kts 32°
2026-05-06 11:59 23.77872 114.43352 35061 ft 471 kts 33°
2026-05-06 12:00 23.83126 114.47648 35059 ft 471 kts 33°
2026-05-06 12:00 23.88362 114.51968 35074 ft 472 kts 33°
2026-05-06 12:01 23.93603 114.56289 35074 ft 472 kts 33°
2026-05-06 12:01 23.98850 114.60614 35076 ft 472 kts 33°
2026-05-06 12:02 24.04103 114.64942 35078 ft 472 kts 33°
2026-05-06 12:02 24.09349 114.69279 35077 ft 472 kts 33°
2026-05-06 12:03 24.14593 114.73618 35091 ft 472 kts 33°
2026-05-06 12:03 24.19795 114.77920 35082 ft 472 kts 33°
2026-05-06 12:04 24.24997 114.82223 35083 ft 471 kts 32°
2026-05-06 12:04 24.30722 114.85482 35076 ft 460 kts 13°
2026-05-06 12:05 24.36920 114.87110 35068 ft 457 kts
2026-05-06 12:05 24.43119 114.88644 35076 ft 457 kts
2026-05-06 12:06 24.49319 114.90185 35073 ft 456 kts
2026-05-06 12:06 24.55477 114.91711 35073 ft 456 kts
2026-05-06 12:07 24.61706 114.93255 35072 ft 456 kts
2026-05-06 12:07 24.67872 114.94786 35078 ft 456 kts
2026-05-06 12:08 24.74068 114.96320 35079 ft 456 kts
2026-05-06 12:08 24.80262 114.97848 35077 ft 456 kts
2026-05-06 12:09 24.86422 114.99346 35076 ft 455 kts
2026-05-06 12:09 24.92613 115.00846 35069 ft 456 kts
2026-05-06 12:10 24.98799 115.02351 35069 ft 456 kts
2026-05-06 12:10 25.04995 115.03863 35061 ft 456 kts
2026-05-06 12:11 25.11200 115.05373 35054 ft 456 kts
2026-05-06 12:11 25.17407 115.06893 35055 ft 457 kts
2026-05-06 12:12 25.23565 115.08401 35070 ft 457 kts
2026-05-06 12:12 25.29793 115.09893 35067 ft 455 kts
2026-05-06 12:13 25.36009 115.09855 35062 ft 442 kts 345°
2026-05-06 12:13 25.41701 115.07647 35060 ft 434 kts 332°
2026-05-06 12:14 25.47187 115.04823 35049 ft 434 kts 332°
2026-05-06 12:14 25.52686 115.02007 35061 ft 434 kts 332°
2026-05-06 12:15 25.58128 114.99211 35050 ft 433 kts 331°
2026-05-06 12:15 25.63627 114.96386 35047 ft 433 kts 331°
2026-05-06 12:16 25.69058 114.93592 35044 ft 432 kts 331°
2026-05-06 12:16 25.74566 114.90902 35032 ft 436 kts 340°
2026-05-06 12:17 25.77577 114.90340 35028 ft 444 kts 354°
2026-05-06 12:17 25.80681 114.90659 35022 ft 453 kts
2026-05-06 12:17 25.83662 114.91892 35024 ft 463 kts 24°
2026-05-06 12:17 25.86293 114.93986 35017 ft 473 kts 40°
2026-05-06 12:18 25.90825 114.99277 35008 ft 476 kts 43°
2026-05-06 12:18 25.95342 115.04678 35013 ft 477 kts 43°
2026-05-06 12:19 25.99866 115.10077 35013 ft 478 kts 43°
2026-05-06 12:19 26.04428 115.15504 35019 ft 478 kts 43°
2026-05-06 12:20 26.08944 115.20878 35021 ft 478 kts 42°
2026-05-06 12:20 26.13470 115.26268 35024 ft 478 kts 42°
2026-05-06 12:21 26.18011 115.31683 35025 ft 478 kts 43°
2026-05-06 12:21 26.22550 115.37109 35025 ft 479 kts 43°
2026-05-06 12:22 26.27081 115.42545 35029 ft 479 kts 43°
2026-05-06 12:22 26.31618 115.47992 35041 ft 479 kts 43°
2026-05-06 12:23 26.36157 115.53429 35043 ft 479 kts 43°
2026-05-06 12:23 26.40699 115.58870 35039 ft 480 kts 43°
2026-05-06 12:24 26.45216 115.64306 35036 ft 480 kts 43°
2026-05-06 12:24 26.49013 115.68885 35038 ft 479 kts 43°
2026-05-06 12:25 26.53544 115.74343 35055 ft 479 kts 43°
2026-05-06 12:25 26.58078 115.79816 35050 ft 479 kts 43°
2026-05-06 12:26 26.62602 115.85289 35049 ft 480 kts 43°
2026-05-06 12:26 26.67125 115.90767 35054 ft 480 kts 43°
2026-05-06 12:27 26.71634 115.96229 35047 ft 480 kts 43°
2026-05-06 12:27 26.76189 116.01752 35056 ft 480 kts 43°
2026-05-06 12:28 26.80696 116.07218 35062 ft 480 kts 43°
2026-05-06 12:28 26.85226 116.12725 35053 ft 481 kts 43°
2026-05-06 12:29 26.89730 116.18221 35050 ft 481 kts 43°
2026-05-06 12:29 26.94258 116.23736 35048 ft 480 kts 43°
2026-05-06 12:30 26.98797 116.29191 35058 ft 480 kts 42°
2026-05-06 12:30 27.03362 116.34676 35054 ft 481 kts 43°
2026-05-06 12:31 27.07915 116.40171 35051 ft 481 kts 43°
2026-05-06 12:31 27.12461 116.45669 35048 ft 481 kts 43°
2026-05-06 12:32 27.17009 116.51185 35058 ft 481 kts 43°
2026-05-06 12:32 27.21561 116.56712 35052 ft 481 kts 42°
2026-05-06 12:33 27.26169 116.62137 35045 ft 480 kts 41°
2026-05-06 12:33 27.30815 116.67478 35051 ft 480 kts 41°
2026-05-06 12:34 27.35476 116.72862 35038 ft 480 kts 41°
2026-05-06 12:34 27.40108 116.78265 35067 ft 480 kts 41°
2026-05-06 12:35 27.44720 116.83667 35049 ft 480 kts 41°
2026-05-06 12:35 27.49336 116.89084 35057 ft 480 kts 41°
2026-05-06 12:36 27.53986 116.94524 35035 ft 481 kts 41°
2026-05-06 12:36 27.58653 116.99909 35056 ft 481 kts 41°
2026-05-06 12:37 27.63327 117.05292 35057 ft 481 kts 41°
2026-05-06 12:37 27.68004 117.10699 35053 ft 481 kts 41°
2026-05-06 12:38 27.72653 117.16093 35065 ft 482 kts 41°
2026-05-06 12:38 27.77331 117.21538 35052 ft 482 kts 41°
2026-05-06 12:39 27.82005 117.26976 35085 ft 482 kts 41°
2026-05-06 12:39 27.86672 117.32407 35065 ft 482 kts 41°
2026-05-06 12:40 27.91320 117.37830 35071 ft 481 kts 41°
2026-05-06 12:40 27.95980 117.43268 35072 ft 482 kts 41°
2026-05-06 12:41 28.00652 117.48737 35074 ft 482 kts 41°
2026-05-06 12:41 28.05311 117.54183 35065 ft 483 kts 41°
2026-05-06 12:42 28.09974 117.59651 35068 ft 483 kts 41°
2026-05-06 12:42 28.14643 117.65135 35066 ft 483 kts 41°
2026-05-06 12:43 28.19311 117.70622 35054 ft 484 kts 41°
2026-05-06 12:43 28.23983 117.76116 35060 ft 484 kts 42°
2026-05-06 12:44 28.28650 117.81621 35050 ft 484 kts 42°
2026-05-06 12:44 28.33315 117.87125 35057 ft 484 kts 42°
2026-05-06 12:45 28.37985 117.92642 35053 ft 484 kts 42°
2026-05-06 12:46 28.44921 118.00911 35055 ft 484 kts 43°
2026-05-06 12:46 28.49505 118.06565 35054 ft 485 kts 44°
2026-05-06 12:47 28.54062 118.12236 35055 ft 485 kts 43°
2026-05-06 12:47 28.58600 118.17851 35055 ft 485 kts 43°
2026-05-06 12:48 28.63175 118.23494 35054 ft 484 kts 43°
2026-05-06 12:48 28.67742 118.29129 35060 ft 484 kts 43°
2026-05-06 12:49 28.72314 118.34781 35057 ft 485 kts 43°
2026-05-06 12:49 28.76881 118.40430 35046 ft 485 kts 43°
2026-05-06 12:50 28.81456 118.46100 35044 ft 485 kts 44°
2026-05-06 12:50 28.85131 118.50675 35060 ft 485 kts 44°
2026-05-06 12:51 28.89530 118.56167 35052 ft 486 kts 44°
2026-05-06 12:51 28.94095 118.61851 35053 ft 486 kts 44°
2026-05-06 12:52 28.98668 118.67551 35044 ft 487 kts 44°
2026-05-06 12:52 29.03240 118.73260 35048 ft 487 kts 44°
2026-05-06 12:53 29.07811 118.78977 35067 ft 487 kts 44°
2026-05-06 12:53 29.12363 118.84675 35055 ft 488 kts 44°
2026-05-06 12:53 29.14659 118.87556 34866 ft 493 kts 44°
2026-05-06 12:54 29.16992 118.90483 34020 ft 500 kts 44°
2026-05-06 12:54 29.19333 118.93424 32773 ft 500 kts 44°
2026-05-06 12:54 29.21565 118.96232 31614 ft 507 kts 45°
2026-05-06 12:54 29.23949 118.99233 30674 ft 510 kts 45°
2026-05-06 12:55 29.26311 119.02210 29712 ft 513 kts 45°
2026-05-06 12:55 29.28709 119.05238 28773 ft 513 kts 45°
2026-05-06 12:55 29.31094 119.08248 28021 ft 508 kts 45°
2026-05-06 12:55 29.33458 119.11235 27316 ft 503 kts 46°
2026-05-06 12:56 29.35795 119.14193 26610 ft 498 kts 46°
2026-05-06 12:56 29.38114 119.17133 25909 ft 493 kts 46°
2026-05-06 12:56 29.40375 119.20000 25282 ft 488 kts 46°
2026-05-06 12:56 29.42645 119.22882 24657 ft 484 kts 46°
2026-05-06 12:57 29.44888 119.25731 24062 ft 479 kts 46°
2026-05-06 12:57 29.47111 119.28555 23501 ft 474 kts 46°
2026-05-06 12:57 29.49307 119.31348 22838 ft 469 kts 46°
2026-05-06 12:57 29.51489 119.34126 22201 ft 464 kts 46°
2026-05-06 12:58 29.53651 119.36878 21581 ft 460 kts 46°
2026-05-06 12:58 29.55761 119.39564 20991 ft 455 kts 46°
2026-05-06 12:58 29.57879 119.42259 20393 ft 451 kts 46°
2026-05-06 12:58 29.59928 119.44983 19791 ft 446 kts 52°
2026-05-06 12:59 29.61518 119.48037 19224 ft 443 kts 65°
2026-05-06 12:59 29.62528 119.51316 18698 ft 439 kts 77°
2026-05-06 12:59 29.62965 119.54780 18125 ft 435 kts 89°
2026-05-06 12:59 29.62920 119.58231 17542 ft 431 kts 93°
2026-05-06 13:00 29.62827 119.61660 16991 ft 426 kts 93°
2026-05-06 13:00 29.62737 119.65062 16694 ft 424 kts 93°
2026-05-06 13:00 29.62657 119.68448 16646 ft 423 kts 92°
2026-05-06 13:00 29.62586 119.71842 16660 ft 424 kts 92°
2026-05-06 13:01 29.62519 119.75221 16657 ft 424 kts 92°
2026-05-06 13:01 29.62455 119.78561 16656 ft 424 kts 92°
2026-05-06 13:01 29.62387 119.81948 16655 ft 424 kts 92°
2026-05-06 13:01 29.62317 119.85332 16649 ft 423 kts 92°
2026-05-06 13:02 29.62247 119.88711 16660 ft 423 kts 92°
2026-05-06 13:02 29.62176 119.92083 16660 ft 423 kts 92°
2026-05-06 13:02 29.62101 119.95460 16661 ft 423 kts 92°
2026-05-06 13:02 29.62023 119.98834 16662 ft 423 kts 92°
2026-05-06 13:03 29.61944 120.02220 16663 ft 423 kts 92°
2026-05-06 13:03 29.61867 120.05558 16659 ft 423 kts 92°
2026-05-06 13:03 29.61787 120.08974 16664 ft 423 kts 92°
2026-05-06 13:03 29.61709 120.12317 16662 ft 423 kts 92°
2026-05-06 13:04 29.61629 120.15704 16657 ft 423 kts 92°
2026-05-06 13:04 29.61547 120.19093 16662 ft 424 kts 92°
2026-05-06 13:04 29.61469 120.22207 16662 ft 424 kts 92°
2026-05-06 13:04 29.61384 120.25594 16662 ft 424 kts 92°
2026-05-06 13:05 29.61304 120.28991 16667 ft 425 kts 92°
2026-05-06 13:05 29.61228 120.32380 16668 ft 425 kts 92°
2026-05-06 13:05 29.61151 120.35783 16666 ft 425 kts 92°
2026-05-06 13:05 29.61073 120.39176 16663 ft 425 kts 92°
2026-05-06 13:06 29.60996 120.42534 16672 ft 425 kts 92°
2026-05-06 13:06 29.60916 120.45945 16678 ft 425 kts 92°
2026-05-06 13:06 29.60834 120.49335 16673 ft 425 kts 92°
2026-05-06 13:06 29.60749 120.52732 16683 ft 425 kts 92°
2026-05-06 13:07 29.60663 120.56133 16686 ft 425 kts 92°
2026-05-06 13:07 29.60577 120.59529 16699 ft 425 kts 92°
2026-05-06 13:07 29.60492 120.62883 16694 ft 425 kts 92°
2026-05-06 13:07 29.60405 120.66281 16689 ft 425 kts 92°
2026-05-06 13:08 29.60313 120.69689 16691 ft 425 kts 92°
2026-05-06 13:08 29.60219 120.73085 16693 ft 425 kts 92°
2026-05-06 13:08 29.60141 120.76486 16693 ft 426 kts 90°
2026-05-06 13:08 29.60435 120.79875 16685 ft 426 kts 79°
2026-05-06 13:09 29.61253 120.83106 16687 ft 426 kts 68°
2026-05-06 13:09 29.62585 120.86142 16683 ft 425 kts 57°
2026-05-06 13:09 29.64210 120.88971 16681 ft 425 kts 55°
2026-05-06 13:09 29.65843 120.91805 16686 ft 425 kts 55°
2026-05-06 13:10 29.67474 120.94648 16671 ft 425 kts 56°
2026-05-06 13:10 29.69070 120.97439 16674 ft 413 kts 56°
2026-05-06 13:10 29.70671 121.00234 16681 ft 421 kts 56°
2026-05-06 13:10 29.72288 121.03058 16684 ft 423 kts 56°
2026-05-06 13:11 29.73885 121.05849 16685 ft 423 kts 56°
2026-05-06 13:11 29.75529 121.08721 16681 ft 424 kts 56°
2026-05-06 13:11 29.77131 121.11521 16687 ft 424 kts 56°
2026-05-06 13:11 29.78759 121.14368 16690 ft 424 kts 56°
2026-05-06 13:12 29.80384 121.17216 16688 ft 424 kts 56°
2026-05-06 13:12 29.82003 121.20058 16692 ft 424 kts 56°
2026-05-06 13:12 29.83619 121.22902 16694 ft 424 kts 56°
2026-05-06 13:12 29.85220 121.25716 16690 ft 424 kts 56°
2026-05-06 13:13 29.86835 121.28554 16693 ft 424 kts 56°
2026-05-06 13:13 29.88499 121.31306 16664 ft 409 kts 49°
2026-05-06 13:13 29.90457 121.33601 16479 ft 395 kts 38°
2026-05-06 13:13 29.92687 121.35389 16086 ft 387 kts 27°
2026-05-06 13:14 29.95049 121.36847 15661 ft 383 kts 26°
2026-05-06 13:14 29.97361 121.38276 15241 ft 380 kts 26°
2026-05-06 13:14 29.99691 121.39726 14812 ft 377 kts 27°
2026-05-06 13:14 30.01986 121.41163 14387 ft 374 kts 27°
2026-05-06 13:15 30.04262 121.42593 13961 ft 371 kts 27°
2026-05-06 13:15 30.06531 121.44021 13506 ft 368 kts 27°
2026-05-06 13:15 30.08743 121.45411 13028 ft 365 kts 27°
2026-05-06 13:15 30.10973 121.46811 12612 ft 363 kts 27°
2026-05-06 13:16 30.13185 121.48201 12119 ft 361 kts 27°
2026-05-06 13:16 30.15388 121.49584 11645 ft 358 kts 27°
2026-05-06 13:16 30.17566 121.50953 11186 ft 355 kts 27°
2026-05-06 13:16 30.19728 121.52311 10741 ft 352 kts 27°
2026-05-06 13:17 30.21878 121.53660 10301 ft 349 kts 27°
2026-05-06 13:17 30.24004 121.54997 9900 ft 346 kts 27°
2026-05-06 13:17 30.26080 121.56307 9767 ft 332 kts 27°
2026-05-06 13:17 30.28061 121.57578 9660 ft 319 kts 28°
2026-05-06 13:18 30.29961 121.58811 9535 ft 308 kts 28°
2026-05-06 13:18 30.31779 121.59995 9291 ft 301 kts 28°
2026-05-06 13:18 30.33600 121.61179 8930 ft 298 kts 27°
2026-05-06 13:18 30.35418 121.62357 8532 ft 298 kts 27°
2026-05-06 13:19 30.37221 121.63529 8212 ft 295 kts 28°
2026-05-06 13:19 30.38981 121.64729 7929 ft 292 kts 30°
2026-05-06 13:19 30.40698 121.65936 7896 ft 292 kts 30°
2026-05-06 13:19 30.42431 121.67169 7900 ft 294 kts 30°
2026-05-06 13:20 30.44184 121.68417 7904 ft 294 kts 30°
2026-05-06 13:20 30.45915 121.69643 7903 ft 295 kts 30°
2026-05-06 13:20 30.47663 121.70877 7901 ft 294 kts 29°
2026-05-06 13:20 30.49413 121.72110 7899 ft 293 kts 30°
2026-05-06 13:21 30.51152 121.73337 7903 ft 293 kts 30°
2026-05-06 13:21 30.52894 121.74567 7921 ft 293 kts 30°
2026-05-06 13:21 30.54646 121.75800 7918 ft 295 kts 30°
2026-05-06 13:21 30.56392 121.77003 7916 ft 294 kts 26°
2026-05-06 13:22 30.58289 121.77844 7914 ft 292 kts 12°
2026-05-06 13:22 30.60269 121.78381 7915 ft 292 kts 11°
2026-05-06 13:22 30.62248 121.78912 7918 ft 291 kts 11°
2026-05-06 13:22 30.64223 121.79444 7918 ft 292 kts 12°
2026-05-06 13:23 30.66204 121.79981 7900 ft 291 kts 12°
2026-05-06 13:23 30.68170 121.80514 7558 ft 289 kts 11°
2026-05-06 13:23 30.70111 121.81041 7115 ft 290 kts 11°
2026-05-06 13:23 30.72068 121.81573 6916 ft 288 kts 11°
2026-05-06 13:24 30.74023 121.82105 6909 ft 288 kts 12°
2026-05-06 13:24 30.75317 121.82457 6915 ft 289 kts 11°
2026-05-06 13:24 30.77942 121.83175 6915 ft 289 kts 12°
2026-05-06 13:24 30.79905 121.83711 6915 ft 289 kts 11°
2026-05-06 13:25 30.81204 121.84065 6910 ft 288 kts 10°
2026-05-06 13:25 30.83165 121.84602 6912 ft 290 kts 12°
2026-05-06 13:25 30.85773 121.85315 6911 ft 290 kts 11°
2026-05-06 13:25 30.87738 121.85851 6928 ft 291 kts 11°
2026-05-06 13:26 30.89724 121.86391 6930 ft 292 kts 12°
2026-05-06 13:26 30.91029 121.86748 6928 ft 290 kts 12°
2026-05-06 13:26 30.93591 121.87659 6928 ft 292 kts 24°
2026-05-06 13:26 30.95354 121.88823 6928 ft 290 kts 30°
2026-05-06 13:27 30.96510 121.89617 6925 ft 291 kts 29°
2026-05-06 13:27 30.98267 121.90821 6925 ft 292 kts 29°
2026-05-06 13:27 31.00022 121.92026 6923 ft 293 kts 29°
2026-05-06 13:27 31.01786 121.93235 6925 ft 293 kts 29°
2026-05-06 13:28 31.03536 121.94433 6898 ft 292 kts 29°
2026-05-06 13:28 31.05255 121.95608 6722 ft 283 kts 29°
2026-05-06 13:28 31.06983 121.96589 6594 ft 270 kts 15°
2026-05-06 13:28 31.08806 121.96920 6285 ft 263 kts 357°
2026-05-06 13:29 31.10591 121.96585 5944 ft 258 kts 340°
2026-05-06 13:29 31.12293 121.95936 5569 ft 256 kts 340°
2026-05-06 13:29 31.13985 121.95295 5210 ft 255 kts 339°
2026-05-06 13:29 31.15670 121.94663 4942 ft 252 kts 339°
2026-05-06 13:30 31.17319 121.94047 4917 ft 253 kts 339°
2026-05-06 13:30 31.19005 121.93416 4925 ft 254 kts 340°
2026-05-06 13:30 31.20666 121.92794 4920 ft 243 kts 340°
2026-05-06 13:30 31.22235 121.92206 4917 ft 231 kts 339°
2026-05-06 13:31 31.23755 121.91635 4922 ft 228 kts 338°
2026-05-06 13:31 31.25243 121.91075 4822 ft 226 kts 338°
2026-05-06 13:31 31.26759 121.90515 4521 ft 228 kts 338°
2026-05-06 13:31 31.28280 121.89952 4222 ft 229 kts 338°
2026-05-06 13:32 31.29802 121.89380 3937 ft 230 kts 338°
2026-05-06 13:32 31.31300 121.88800 3688 ft 230 kts 338°
2026-05-06 13:32 31.32830 121.88200 3405 ft 232 kts 338°
2026-05-06 13:32 31.34361 121.87601 3146 ft 232 kts 338°
2026-05-06 13:33 31.35889 121.86992 3012 ft 232 kts 339°
2026-05-06 13:33 31.37409 121.86358 3015 ft 232 kts 338°
2026-05-06 13:33 31.38932 121.85717 3015 ft 232 kts 338°
2026-05-06 13:33 31.40453 121.85086 3013 ft 231 kts 338°
2026-05-06 13:34 31.41950 121.84426 3010 ft 228 kts 329°
2026-05-06 13:34 31.43134 121.83278 3013 ft 223 kts 302°
2026-05-06 13:34 31.43748 121.81649 3014 ft 216 kts 274°
2026-05-06 13:34 31.43686 121.79937 3013 ft 208 kts 252°
2026-05-06 13:35 31.43321 121.78176 3013 ft 210 kts 254°
2026-05-06 13:35 31.42991 121.76616 3010 ft 207 kts 249°
2026-05-06 13:35 31.42384 121.75192 3005 ft 192 kts 232°
2026-05-06 13:35 31.41469 121.74103 2876 ft 184 kts 214°
2026-05-06 13:36 31.40357 121.73416 2732 ft 180 kts 197°
2026-05-06 13:36 31.39136 121.73152 2558 ft 177 kts 180°
2026-05-06 13:36 31.37948 121.73318 2344 ft 171 kts 165°
2026-05-06 13:36 31.36821 121.73742 2025 ft 168 kts 163°
2026-05-06 13:37 31.35701 121.74168 2011 ft 170 kts 163°
2026-05-06 13:37 31.34579 121.74593 2013 ft 170 kts 163°
2026-05-06 13:37 31.33479 121.75010 2022 ft 168 kts 163°
2026-05-06 13:37 31.32384 121.75425 2016 ft 166 kts 163°
2026-05-06 13:38 31.31299 121.75837 2003 ft 163 kts 163°
2026-05-06 13:38 31.30223 121.76244 1996 ft 163 kts 163°
2026-05-06 13:38 31.29145 121.76652 2010 ft 163 kts 163°
2026-05-06 13:38 31.28064 121.77061 2009 ft 163 kts 163°
2026-05-06 13:39 31.26984 121.77470 2009 ft 163 kts 162°
2026-05-06 13:39 31.25903 121.77879 1949 ft 163 kts 162°
2026-05-06 13:39 31.24833 121.78284 1788 ft 160 kts 162°
2026-05-06 13:39 31.23776 121.78683 1600 ft 159 kts 163°
2026-05-06 13:40 31.22724 121.79081 1398 ft 158 kts 163°
2026-05-06 13:40 31.21684 121.79474 1186 ft 158 kts 162°
2026-05-06 13:40 31.20634 121.79871 980 ft 159 kts 161°
2026-05-06 13:40 31.19630 121.80250 771 ft 143 kts 162°
2026-05-06 13:41 31.18716 121.80594 616 ft 133 kts 160°
2026-05-06 13:41 31.17838 121.80926 430 ft 131 kts 161°
2026-05-06 13:41 31.16956 121.81259 256 ft 133 kts 160°
2026-05-06 13:41 31.16097 121.81594 108 ft 131 kts 161°
2026-05-06 13:42 31.15260 121.81910 23 ft 115 kts 162°